Home   Weather   Andernach   Past weeks

Flag for Germany Past Weather in Andernach, Rhineland-Palatinate, Germany — Yesterday and Last 2 Weeks

Now
48 °F

Cool.


Feels Like: 46 °F
Forecast: 51 / 70 °F
Wind: 6 mph from West

Location: Buechel

Current Time: Aug 20, 2017 at 9:54:39 am

Latest Report: Aug 20, 2017 at 8:20 am


Visibility: N/A

Pressure: 30.21 "Hg

Humidity: 100%

Dew Point: 48 °F

Location of AndernachLocation

Past Weather in Andernach — Graph

°F

Andernach Temperature Yesterday

Maximum temperature yesterday: 61 °F (at 4:20 pm)
Minimum temperature yesterday: 48 °F (at 4:20 am)
Average temperature yesterday: 54 °F

High & Low Weather Summary for the Past Weeks

 TemperatureHumidityPressure
High73 °F (Aug 7, 5:20 pm)100% (Aug 9, 6:40 am)30.24 "Hg (Aug 9, 6:40 am)
Low46 °F (Aug 20, 6:20 am)37% (Aug 6, 2:20 pm)29.83 "Hg (Aug 8, 6:20 am)
Average60 °F82%30.07 "Hg
* Reported Aug 5 8:20 am — Aug 20 8:20 am, Andernach. Weather by CustomWeather, © 2017

Note: Actual official high and low records may vary slightly from our data, if they occured in-between our weather recording intervals... More about our weather records

Advertising

Andernach Weather History for the Previous 24 Hours

Scroll right to see more
 ConditionsComfort  
Time TempWeatherWind HumidityBarometerVisibility
8:20 am
Sun, Aug 20
48 °FCool.6 mph100%30.21 "HgN/A
7:20 am48 °FCool.5 mph94%30.21 "Hg3 mi
6:20 am46 °FCool.3 mph100%30.18 "HgN/A
5:20 am48 °FCool.7 mph100%30.18 "HgN/A
4:20 am48 °FCool.7 mph100%30.18 "Hg0 mi
3:20 am48 °FCool.6 mph100%30.18 "Hg0 mi
2:20 am50 °FCool.5 mph100%30.18 "Hg0 mi
1:20 am50 °FCool.3 mph94%30.18 "Hg0 mi
12:20 am52 °FCool.3 mph94%30.18 "Hg0 mi
11:20 pm
Sat, Aug 19
52 °FCool.5 mph94%30.18 "Hg1 mi
10:20 pm54 °FCool.5 mph94%30.15 "HgN/A
9:20 pm54 °FCool.6 mph94%30.15 "HgN/A
8:20 pm55 °FCool.7 mph94%30.15 "HgN/A
7:20 pm55 °FCool.9 mph94%30.12 "HgN/A
6:20 pm55 °FCool.7 mph88%30.12 "HgN/A
5:20 pm59 °FCool.12 mph72%30.12 "HgN/A
4:20 pm61 °FCool.13 mph68%30.09 "HgN/A
3:20 pm59 °FCool.14 mph72%30.09 "HgN/A
2:20 pm59 °FCool.16 mph72%30.09 "HgN/A
1:20 pm59 °FCool.16 mph72%30.09 "HgN/A
12:20 pm59 °FCool.15 mph72%30.09 "HgN/A
11:20 am57 °FCool.15 mph72%30.09 "HgN/A
10:20 am54 °FCool.15 mph82%30.07 "HgN/A
9:20 am52 °FCool.10 mph100%30.07 "HgN/A
Weather by CustomWeather, © 2017

See weather overviewHow to use our weather pages